TimeMDT,TemperatureF,Dew PointF,Humidity,Sea Level PressureIn,VisibilityMPH,Wind Direction,Wind SpeedMPH,Gust SpeedMPH,PrecipitationIn,Events,Conditions,WindDirDegrees,DateUTC
12:15 AM,64.4,32.0,30,29.90,10.0,SW,5.8,-,N/A,,Clear,230,2013-10-01 06:15:00
12:35 AM,62.6,32.0,32,29.90,10.0,SW,6.9,-,N/A,,Clear,230,2013-10-01 06:35:00
12:55 AM,62.6,32.0,32,29.89,10.0,SW,6.9,-,N/A,,Clear,220,2013-10-01 06:55:00
1:15 AM,60.8,32.0,34,29.89,10.0,South,5.8,-,N/A,,Clear,190,2013-10-01 07:15:00
1:35 AM,59.0,32.0,36,29.89,10.0,SE,3.5,-,N/A,,Clear,140,2013-10-01 07:35:00
1:55 AM,57.2,32.0,38,29.89,10.0,Calm,Calm,-,N/A,,Clear,0,2013-10-01 07:55:00
2:15 AM,57.2,32.0,38,29.89,10.0,South,5.8,-,N/A,,Clear,180,2013-10-01 08:15:00
2:35 AM,55.4,32.0,41,29.89,10.0,SE,8.1,-,N/A,,Clear,140,2013-10-01 08:35:00
2:55 AM,57.2,32.0,38,29.89,10.0,South,6.9,-,N/A,,Clear,170,2013-10-01 08:55:00
3:15 AM,57.2,32.0,38,29.89,10.0,South,8.1,-,N/A,,Clear,170,2013-10-01 09:15:00
3:35 AM,55.4,32.0,41,29.89,10.0,South,4.6,-,N/A,,Clear,190,2013-10-01 09:35:00
3:55 AM,55.4,32.0,41,29.89,10.0,South,5.8,-,N/A,,Clear,180,2013-10-01 09:55:00
4:15 AM,55.4,32.0,41,29.89,10.0,South,5.8,-,N/A,,Clear,180,2013-10-01 10:15:00
4:35 AM,55.4,32.0,41,29.90,10.0,SSW,6.9,-,N/A,,Clear,200,2013-10-01 10:35:00
4:55 AM,53.6,33.8,47,29.90,10.0,SSW,8.1,-,N/A,,Clear,200,2013-10-01 10:55:00
5:50 AM,53.6,33.8,47,29.91,10.0,SSW,4.6,-,N/A,,Clear,200,2013-10-01 11:50:00
6:50 AM,53.6,33.8,47,29.92,10.0,SSW,3.5,-,N/A,,Clear,200,2013-10-01 12:50:00
7:50 AM,59.0,33.8,39,29.94,10.0,SW,3.5,-,N/A,,Clear,220,2013-10-01 13:50:00
8:50 AM,69.8,32.0,25,29.95,10.0,SSW,4.6,-,N/A,,Clear,210,2013-10-01 14:50:00
9:50 AM,82.4,32.0,16,29.96,10.0,WSW,5.8,-,N/A,,Clear,240,2013-10-01 15:50:00
10:50 AM,86.0,24.8,11,29.95,10.0,West,5.8,-,N/A,,Clear,270,2013-10-01 16:50:00
11:50 AM,89.6,24.8,10,29.95,10.0,WSW,8.1,-,N/A,,Clear,240,2013-10-01 17:50:00
12:50 PM,91.4,24.8,9,29.93,10.0,SW,11.5,-,N/A,,Clear,230,2013-10-01 18:50:00
1:50 PM,91.4,23.0,8,29.90,10.0,SSW,10.4,16.1,N/A,,Clear,200,2013-10-01 19:50:00
2:50 PM,91.4,23.0,8,29.90,10.0,SSW,12.7,21.9,N/A,,Clear,200,2013-10-01 20:50:00
3:50 PM,91.4,21.2,8,29.90,10.0,West,13.8,20.7,N/A,,Clear,270,2013-10-01 21:50:00
4:50 PM,89.6,23.0,9,29.89,10.0,WSW,15.0,-,N/A,,Clear,240,2013-10-01 22:50:00
5:50 PM,87.8,24.8,10,29.90,10.0,SW,8.1,-,N/A,,Clear,230,2013-10-01 23:50:00
6:15 PM,86.0,23.0,10,29.90,10.0,West,5.8,-,N/A,,Clear,260,2013-10-02 00:15:00
6:35 PM,82.4,23.0,11,29.90,10.0,West,6.9,-,N/A,,Clear,260,2013-10-02 00:35:00
6:55 PM,80.6,23.0,12,29.90,10.0,SW,5.8,-,N/A,,Clear,230,2013-10-02 00:55:00
7:15 PM,78.8,23.0,13,29.91,10.0,SW,4.6,-,N/A,,Clear,220,2013-10-02 01:15:00
7:35 PM,75.2,23.0,14,29.91,10.0,WSW,5.8,-,N/A,,Clear,250,2013-10-02 01:35:00
7:55 PM,69.8,23.0,17,29.92,10.0,West,6.9,-,N/A,,Clear,260,2013-10-02 01:55:00
8:15 PM,68.0,23.0,18,29.93,10.0,SW,4.6,-,N/A,,Clear,230,2013-10-02 02:15:00
8:35 PM,68.0,23.0,18,29.93,10.0,SW,8.1,-,N/A,,Clear,230,2013-10-02 02:35:00
8:55 PM,68.0,23.0,18,29.94,10.0,WSW,9.2,-,N/A,,Clear,250,2013-10-02 02:55:00
9:15 PM,66.2,23.0,19,29.94,10.0,WSW,10.4,-,N/A,,Clear,250,2013-10-02 03:15:00
9:35 PM,68.0,23.0,18,29.94,10.0,SW,8.1,-,N/A,,Clear,230,2013-10-02 03:35:00
9:55 PM,64.4,24.8,22,29.95,10.0,WSW,8.1,-,N/A,,Clear,250,2013-10-02 03:55:00
10:15 PM,64.4,24.8,22,29.94,10.0,West,10.4,-,N/A,,Clear,260,2013-10-02 04:15:00
10:35 PM,68.0,24.8,20,29.95,10.0,WSW,8.1,-,N/A,,Clear,240,2013-10-02 04:35:00
10:55 PM,66.2,24.8,21,29.95,10.0,WSW,8.1,-,N/A,,Clear,240,2013-10-02 04:55:00
11:15 PM,64.4,24.8,22,29.95,10.0,SSW,4.6,-,N/A,,Clear,200,2013-10-02 05:15:00
11:35 PM,59.0,26.6,29,29.95,10.0,SSW,4.6,-,N/A,,Clear,210,2013-10-02 05:35:00
11:55 PM,59.0,26.6,29,29.95,10.0,WSW,6.9,-,N/A,,Clear,250,2013-10-02 05:55:00